AO-07 1 07530U 74089B 24109.54884778 -.00000015 00000-0 19393-3 0 9995 2 07530 101.9777 103.6413 0012079 196.6724 275.5034 12.53674244261565 UO-11 1 14781U 84021B 24109.85681387 .00004555 00000-0 52214-3 0 9994 2 14781 97.6999 80.9409 0006371 273.5403 86.5085 14.86375983160679 AO-16 1 20439U 90005D 24109.59061059 .00000596 00000-0 23329-3 0 9995 2 20439 98.9012 113.0460 0011291 31.7060 83.1883 14.33330698788795 LO-19 1 20442U 90005G 24109.54664729 .00000623 00000-0 24215-3 0 9993 2 20442 98.8808 98.2550 0011805 6.3832 353.7499 14.33490008789298 AO-27 1 22825U 93061C 24109.73382694 .00000404 00000-0 17272-3 0 9996 2 22825 98.7946 161.8728 0007391 249.6962 110.3426 14.30460015594385 IO-26 1 22826U 93061D 24109.58831251 .00000467 00000-0 19546-3 0 9993 2 22826 98.7894 161.5884 0008051 233.8380 126.2057 14.30837703594378 FO-29 1 24278U 96046B 24109.82021565 .00000126 00000-0 16621-3 0 9991 2 24278 98.5762 52.2639 0349864 342.2150 16.6992 13.53182187366658 NOAA-15 1 25338U 98030A 24109.82988128 .00000585 00000-0 26053-3 0 9990 2 25338 98.5745 138.1828 0011296 134.4892 225.7214 14.26538556348971 GO-32 1 25397U 98043D 24109.44417981 .00000364 00000-0 17850-3 0 9991 2 25397 98.9167 75.2938 0001298 22.0407 338.0826 14.24018300338914 ISS 1 25544U 98067A 24109.87569424 .00025877 00000-0 45334-3 0 9992 2 25544 51.6387 249.4981 0004832 77.0876 58.5534 15.50400316449340 NO-44 1 26931U 01043C 24109.45818077 .00000593 00000-0 25560-3 0 9993 2 26931 67.0487 125.8548 0006201 281.9370 78.1036 14.31178277177402 SO-50 1 27607U 02058C 24109.21826459 .00004257 00000-0 59334-3 0 9995 2 27607 64.5565 45.8305 0031835 141.2922 219.0472 14.78636432147451 CO-55 1 27844U 03031E 24109.54433145 .00001082 00000-0 49787-3 0 9996 2 27844 98.6794 117.4043 0008940 324.0866 35.9711 14.23168483 79305 CO-57 1 27848U 03031J 24109.24427772 .00000929 00000-0 43506-3 0 9998 2 27848 98.6825 117.3863 0009160 341.9231 18.1620 14.22622959 79014 RS-22 1 27939U 03042A 24109.86413319 .00004003 00000-0 68090-3 0 9993 2 27939 98.2830 265.1622 0011132 244.8869 247.9661 14.69633760 99564 NOAA-18 1 28654U 05018A 24109.80634839 .00000509 00000-0 29544-3 0 9997 2 28654 98.8754 187.2628 0013557 228.1677 131.8338 14.13171382974879 CO-58 1 28895U 05043F 24109.85429354 .00005640 00000-0 10065-2 0 9999 2 28895 98.1917 245.6442 0016074 180.9214 179.1963 14.67284749985986 CO-65 1 32785U 08021C 24109.50131702 .00009972 00000-0 89689-3 0 9991 2 32785 97.7490 75.3854 0011992 157.0045 203.1715 14.95794181866557 AAUSAT2 1 32788U 08021F 24109.50751099 .00031497 00000-0 17237-2 0 9997 2 32788 97.5923 89.7208 0007341 44.0915 316.0900 15.14160562869280 CO-66 1 32791U 08021J 24109.88886659 .00017353 00000-0 13164-2 0 9993 2 32791 97.6838 81.4745 0007018 128.3724 231.8132 15.02267724867699 RS-30 1 32953U 08025A 24109.83793042 .00000056 00000-0 33178-3 0 9995 2 32953 82.4987 126.4056 0018357 231.8824 128.0601 12.43138925721756 PRISM 1 33493U 09002B 24109.59145751 .00030897 00000-0 16005-2 0 9997 2 33493 98.2134 152.2036 0014283 95.4382 264.8478 15.16053711830009 NOAA-19 1 33591U 09005A 24109.82032035 .00000486 00000-0 28493-3 0 9991 2 33591 99.0527 164.9786 0014902 99.8936 260.3918 14.12971896783247 SRMSAT 1 37841U 11058D 24109.52266980 .00000747 00000-0 26410-3 0 9996 2 37841 19.9711 157.6405 0011852 157.6959 348.3235 14.11077766646127 HRBE 1 37855U 11061F 24109.38510626 .00194086 00000-0 21462-2 0 9999 2 37855 101.6877 256.8357 0059040 169.1952 191.0572 15.60203692683654 RS-40 1 38735U 12041C 24109.59658943 .00000023 00000-0 96622-4 0 9993 2 38735 82.4796 207.0218 0016638 352.2226 7.8593 12.42606230531771 ZACUBE-1 1 39417U 13066B 24109.44072325 .00011786 00000-0 12469-2 0 9990 2 39417 97.7291 66.8044 0051551 0.5799 359.5468 14.88344192562698 Delfi-N3xt 1 39428U 13066N 24109.33941273 .00013379 00000-0 17476-2 0 9990 2 39428 97.8388 29.2992 0100971 282.9359 76.0590 14.77044813557250 GOMX-1 1 39430U 13066Q 24109.58729834 .00005629 00000-0 94049-3 0 9998 2 39430 97.7416 347.5695 0142720 82.3457 279.3928 14.63678433554323 LO-74 1 39440U 13066AA 24109.39697957 .00009207 00000-0 11005-2 0 9994 2 39440 97.8089 54.4073 0072765 108.9464 251.9654 14.82491436559479 AO-73 1 39444U 13066AE 24109.44299614 .00015220 00000-0 15101-2 0 9995 2 39444 97.7145 69.7882 0048356 342.3033 17.6499 14.90966758561208 SPROUT 1 39770U 14029E 24109.38450061 .00138576 00000-0 46162-2 0 9996 2 39770 98.0085 256.4557 0003987 299.9856 60.0987 15.30524694538451 DTUSAT-2 1 40030U 14033W 24109.36357838 .00012816 00000-0 11091-2 0 9999 2 40030 98.0034 60.2896 0010284 6.7867 353.3492 14.97259559533740 EO-80 1 40032U 14033Y 24109.40099912 .00013268 00000-0 11469-2 0 9993 2 40032 98.0015 60.3400 0009778 7.2861 352.8500 14.97296834533728 HODOYOSHI-1 1 40299U 14070B 24109.71843923 .00032785 00000-0 70481-3 0 9997 2 40299 97.1460 170.6714 0006911 242.6321 117.4225 15.44573100525932 XW-2C 1 40906U 15049H 24109.62764382 .00036825 00000-0 96863-3 0 9991 2 40906 97.4842 125.0472 0010686 145.6626 214.5312 15.38425395475309 XW-2D 1 40907U 15049J 24109.63863441 .00053139 00000-0 11612-2 0 9994 2 40907 97.4786 127.0181 0009720 135.0559 225.1478 15.43959154475493 LILACSAT-2 1 40908U 15049K 24109.64286444 .00015085 00000-0 60730-3 0 9992 2 40908 97.5272 117.9745 0012328 190.2384 169.8604 15.24903830474411 XW-2B 1 40911U 15049N 24109.63936143 .00052037 00000-0 11593-2 0 9993 2 40911 97.4763 127.1967 0009757 136.6808 223.5208 15.43389372475368 IO-86 1 40931U 15052B 24105.10210969 .00001784 00000-0 15468-3 0 9997 2 40931 5.9979 90.5798 0013295 253.4384 106.4283 14.77734280462071 ChubuSat-2 1 41338U 16012B 24109.17697122 .00010802 00000-0 68963-3 0 9996 2 41338 31.0021 56.8153 0011665 351.8242 8.2204 15.07383774448535 ChubuSat-3 1 41339U 16012C 24109.23121326 .00010134 00000-0 65513-3 0 9998 2 41339 31.0085 54.6034 0011594 358.1296 1.9297 15.06908735448430 Horyu-4 1 41340U 16012D 24109.07512288 .00022847 00000-0 12010-2 0 9990 2 41340 31.0037 6.8632 0009713 77.3730 282.7995 15.14489484449029 e-st@r-II 1 41459U 16025D 24109.64108544 .00529749 10265-3 22324-2 0 9993 2 41459 98.1271 354.5925 0033278 90.6832 269.8249 15.84529179440264 Lapan A3 1 41603U 16040E 24109.85877466 .00006555 00000-0 26769-3 0 9996 2 41603 97.1464 126.2769 0010663 318.7393 41.3039 15.24659531434181 Pratham 1 41783U 16059A 24109.56506069 .00002006 00000-0 38286-3 0 9995 2 41783 97.8413 131.6965 0031947 207.4109 152.5410 14.64686327403816 CAS-2T 1 41847U 16066G 24109.66770861 .00002580 00000-0 38561-3 0 9991 2 41847 98.4634 181.4048 0354858 356.7803 3.1104 14.41014295390924 CAS-4B 1 42759U 17034B 24109.65616123 .00025978 00000-0 10039-2 0 9994 2 42759 43.0149 202.4189 0013672 312.3654 47.6039 15.25681501378303 CAS-4A 1 42761U 17034D 24109.66219091 .00025317 00000-0 97471-3 0 9994 2 42761 43.0171 200.7760 0012589 317.5889 42.3989 15.25830873378315 NIUSat 1 42766U 17036B 24109.85051220 .00788758 28842-3 16295-2 0 9996 2 42766 97.0984 145.6746 0003561 193.6493 166.4690 15.99262591380289 Aalto 1 1 42775U 17036L 24109.59754896 .00080735 00000-0 11088-2 0 9994 2 42775 97.1132 138.9280 0007341 80.1773 280.0312 15.57020115379802 URSA MAIOR 1 42776U 17036M 24109.65759131 .00144800 00000-0 13323-2 0 9997 2 42776 97.1099 142.2506 0005212 80.5309 279.6541 15.67197394380016 Max Valier Sat 1 42778U 17036P 24109.59785279 .00138746 00000-0 12582-2 0 9992 2 42778 97.1092 146.2997 0005643 91.3063 268.8845 15.67573575380188 D-SAT 1 42794U 17036AF 24109.51112975 .00015180 00000-0 10884-2 0 9998 2 42794 97.4956 93.5694 0108500 350.8542 9.0703 14.99744234371776 TechnoSat 1 42829U 17042E 24109.46568067 .00007922 00000-0 71065-3 0 9999 2 42829 97.3848 293.9090 0010953 275.3295 84.6677 14.95959677368242 AO-91 1 43017U 17073E 24109.19411851 .00014900 00000-0 93927-3 0 9996 2 43017 97.5872 346.8392 0216485 133.8409 228.0932 14.91797601346716 TianYi 2 1 43155U 18008A 24109.65547300 .00093428 00000-0 17424-2 0 9997 2 43155 97.2456 162.9541 0006268 280.2391 79.8153 15.48450652345654 Zhou Enlai 1 43156U 18008B 24109.64862486 .00137111 00000-0 20764-2 0 9991 2 43156 97.2498 164.1882 0004791 269.1625 90.9081 15.54164988345642 TianYi 6 1 43158U 18008D 24109.70484995 .00058891 00000-0 14545-2 0 9992 2 43158 97.2612 158.4157 0005452 299.1650 60.9050 15.40283787345297 S-Net D 1 43186U 18014G 24109.71455321 .00008827 00000-0 64760-3 0 9991 2 43186 97.5969 12.6207 0009713 195.3341 164.7592 15.03684589339562 S-Net B 1 43187U 18014H 24109.71655414 .00009095 00000-0 66705-3 0 9996 2 43187 97.5975 12.5678 0010775 191.3424 168.7561 15.03678501339566 S-Net A 1 43188U 18014J 24109.24993092 .00009392 00000-0 68880-3 0 9998 2 43188 97.5979 12.2176 0010510 193.6598 166.4345 15.03676463339497 S-Net C 1 43189U 18014K 24109.31948715 .00009319 00000-0 68320-3 0 9997 2 43189 97.5998 12.2209 0012619 187.6158 172.4878 15.03673008338054 Changshagaoxin 1 43669U 18083H 24109.58851761 .00460503 00000-0 21423-2 0 9997 2 43669 97.3304 146.9942 0004153 154.0651 206.0826 15.82176400304382 Ten-Koh 1 43677U 18084G 24109.40261455 .00006860 00000-0 62525-3 0 9994 2 43677 98.0539 261.2320 0013889 212.2979 147.7391 14.95396787297784 PO-101 1 43678U 18084H 24109.84550776 .00005364 00000-0 49677-3 0 9991 2 43678 98.0639 266.1358 0008349 219.9807 140.0798 14.94917839298054 QO-100 1 43700U 18090A 24109.53934920 .00000139 00000-0 00000-0 0 9996 2 43700 0.0169 246.6788 0001393 171.7961 8.6627 1.00275541 19757 MinXSS-2 1 43758U 18099A 24109.06092806 .00021429 00000-0 14158-2 0 9990 2 43758 97.5595 172.3953 0018213 161.0246 199.1665 15.07284282293723 AO-95 1 43770U 18099N 24109.54208247 .00012639 00000-0 90490-3 0 9992 2 43770 97.5517 168.6975 0013996 198.2547 161.8179 15.04464534293590 RANGE-B 1 43772U 18099Q 24108.98374172 .00024143 00000-0 15709-2 0 9994 2 43772 97.5299 171.4438 0006777 116.8808 243.3114 15.07941830293643 RANGE-A 1 43773U 18099R 24109.14700043 .00010409 00000-0 80625-3 0 9994 2 43773 97.5126 164.3264 0015862 174.1560 185.9853 15.01511195293426 MOVE-II 1 43780U 18099Y 24109.42849939 .00027555 00000-0 15651-2 0 9997 2 43780 97.5270 173.0788 0008139 173.1134 187.0211 15.12853513293883 SNUSat 2 1 43782U 18099AA 24109.39241107 .00013215 00000-0 96325-3 0 9994 2 43782 97.5179 168.0208 0016112 143.9449 216.2867 15.03754159293583 SnugLite 1 43784U 18099AC 24109.38776332 .00013413 00000-0 95350-3 0 9995 2 43784 97.4998 167.3974 0005740 146.7415 213.4173 15.04783058293641 ITASat 1 1 43786U 18099AE 24109.70601158 .00011414 00000-0 84480-3 0 9997 2 43786 97.5173 168.6717 0018042 191.2386 168.8440 15.03185419293634 EAGLET 1 1 43790U 18099AJ 24109.16817139 .00009304 00000-0 71191-3 0 9990 2 43790 97.5373 168.6064 0015032 171.6239 188.5240 15.02021665293268 ESEO 1 43792U 18099AL 24109.14654149 .00005146 00000-0 42633-3 0 9999 2 43792 97.5218 165.8191 0012716 173.0782 187.0620 14.99210981293209 CSIM 1 43793U 18099AM 24109.14834703 .00030378 00000-0 17249-2 0 9995 2 43793 97.5333 174.4758 0014708 156.6755 203.5146 15.12778243293699 JO-97 1 43803U 18099AX 24109.39691226 .00014878 00000-0 10257-2 0 9994 2 43803 97.5252 169.4394 0011364 143.4682 216.7323 15.05867088293690 Suomi 100 1 43804U 18099AY 24109.68624915 .00013919 00000-0 97417-3 0 9997 2 43804 97.5340 169.5295 0017893 141.1457 219.1060 15.05242426293720 CHOMPTT 1 43855U 18104G 24109.85725999 .00364280 00000-0 14087-2 0 9994 2 43855 85.0069 312.6081 0004234 209.1870 150.9170 15.86352494298229 ISAT 1 43879U 18111D 24109.69028601 .00019485 00000-0 12440-2 0 9991 2 43879 97.6240 15.7399 0012871 194.6516 165.4341 15.08639677288426 UWE-4 1 43880U 18111E 24109.50967648 .00015588 00000-0 10161-2 0 9994 2 43880 97.6155 15.7218 0016135 206.2495 153.7917 15.07883288290437 Sparrow 1 43881U 18111F 24109.54830103 .00018987 00000-0 11980-2 0 9990 2 43881 97.6325 17.3899 0008557 238.2970 121.7425 15.09115502290485 AISat 1 1 44104U 19018AC 24109.53912624 .00150354 00000-0 91627-3 0 9996 2 44104 97.3618 216.4302 0021125 203.5980 156.4318 15.76681694283414 Prox-1 1 44339U 19036A 24109.62232090 .00016200 00000-0 28985-2 0 9995 2 44339 23.9992 248.1908 0009593 56.4748 303.6662 14.65253724256582 SONATE 1 44400U 19038Q 24109.46962776 .00030860 00000-0 10219-2 0 9998 2 44400 97.7125 101.0317 0015092 324.4906 35.5329 15.31145787264936 BeeSat 9 1 44412U 19038AC 24109.49913506 .00223294 00000-0 19853-2 0 9999 2 44412 97.6829 111.8206 0003259 232.0601 128.0365 15.67810814265391 JAISAT-1 1 44419U 19038F 24109.52369872 .00207217 00000-0 19439-2 0 9998 2 44419 97.6812 112.8597 0003006 230.9844 129.1148 15.66526251265771 Taurus 1 1 44530U 19059C 24109.81493121 .00014325 00000-0 33909-2 0 9996 2 44530 98.5678 228.4847 0012071 228.9623 131.0530 14.54121813243135 Duchifat 3 1 44854U 19089C 24109.22983082 .00025947 00000-0 13980-2 0 9992 2 44854 36.9588 52.4383 0009670 304.2628 55.7202 15.13988687239177 OPS-SAT 1 44878U 19092F 24109.50490096 .00218791 00000-0 15885-2 0 9998 2 44878 97.4455 312.6056 0003181 134.1718 225.9807 15.72731668241149 TO-108 1 44881U 19093C 24109.82594350 .00003289 00000-0 40559-3 0 9997 2 44881 97.8295 187.7585 0015204 152.4076 207.7948 14.83490796234248 FloripaSat 1 1 44885U 19093G 24109.84394476 .00012011 00000-0 12706-2 0 9995 2 44885 97.8408 192.9100 0013944 147.8153 212.3918 14.89261342234532 RS-44 1 44909U 19096E 24109.53767118 .00000026 00000-0 58600-4 0 9996 2 44909 82.5195 144.4137 0217338 190.3703 169.2879 12.79728508201340 BY70-2 1 45857U 20042B 24109.82968834 .00123993 00000-0 63889-2 0 9994 2 45857 97.9084 200.1827 0003244 70.8147 289.3435 15.15808519205518 UPMSat 2 1 46276U 20061E 24109.17073602 .00024768 00000-0 81570-3 0 9997 2 46276 97.3024 176.2044 0001191 65.1661 294.9704 15.31472370200980 AmicalSat 1 46287U 20061R 24109.14316265 .00047855 00000-0 15108-2 0 9996 2 46287 97.3545 176.5581 0003159 105.0602 255.0989 15.32681920200352 SALSAT 1 46495U 20068K 24109.40705477 .00011832 00000-0 69092-3 0 9998 2 46495 97.8113 67.2653 0015150 150.3870 209.8220 15.11985719195278 AO-109 1 47311U 21002C 24109.80933949 .01891463 32700-2 16856-2 0 9996 2 47311 60.6539 288.6266 0002487 303.5853 56.5039 16.13228895182018 ExoCube 2 1 47319U 21002L 24109.86750458 .00690725 20939-3 17928-2 0 9992 2 47319 60.6569 294.6139 0006075 99.3605 260.8203 15.94663403181879 UVSQ-SAT 1 47438U 21006AB 24109.70019596 .00060264 00000-0 14499-2 0 9995 2 47438 97.3341 169.6548 0007594 80.2430 279.9674 15.41059711179551 YUSAT 1 1 47439U 21006AC 24109.14801259 .00127234 00000-0 20156-2 0 9997 2 47439 97.3308 172.4199 0005135 78.4063 281.7766 15.52949561179689 SOMP 2b 1 47445U 21006AJ 24109.73141681 .00053061 00000-0 13685-2 0 9990 2 47445 97.3304 168.2433 0007909 86.9017 273.3134 15.38970854179498 IDEASSat 1 47458U 21006AX 24109.15889227 .00046488 00000-0 12835-2 0 9996 2 47458 97.3413 168.3308 0008049 90.1660 270.0507 15.36895214179359 CubeSX-Sirius-HSE 1 47951U 21022V 24109.83126356 .00030309 00000-0 12955-2 0 9992 2 47951 97.4670 8.4475 0014653 356.4069 3.7060 15.22701712169539 CubeSX-HSE 1 47952U 21022W 24109.85456100 .00030833 00000-0 13138-2 0 9994 2 47952 97.4672 8.5518 0014564 355.5067 4.6036 15.22804116169546 KSU-Cubesat 1 47954U 21022Y 24109.68328740 .00034772 00000-0 13835-2 0 9995 2 47954 97.4678 9.4531 0013406 352.7706 7.3336 15.25103522169305 GRBAlpha 1 47959U 21022AD 24109.82270539 .00031263 00000-0 13282-2 0 9996 2 47959 97.4672 8.6594 0014389 355.7019 4.4092 15.22903283168366 Orbicraft-Zorkiy 1 47960U 21022AE 24109.82161434 .00034750 00000-0 14043-2 0 9991 2 47960 97.4712 9.7397 0013584 353.2979 6.8075 15.24580217169100 STECCO 1 47962U 21022AG 24109.86000680 .00115082 00000-0 24074-2 0 9995 2 47962 97.4679 17.1476 0004073 332.8745 27.2290 15.45029532168928 MO-110 1 47964U 21022AJ 24109.53862391 .00129061 00000-0 24078-2 0 9992 2 47964 97.4695 18.2056 0004230 322.5418 37.5537 15.48312153168950 TUBIN 1 48900U 21059X 24109.83290060 .00025973 00000-0 95885-3 0 9996 2 48900 97.6369 252.8709 0006417 292.2345 67.8212 15.27722527155851 LEDSAT 1 49069U 21073D 24109.75250895 .00027931 00000-0 12057-2 0 9997 2 49069 97.4413 181.3738 0021562 132.3007 228.0061 15.22265975147400 CUTE 1 49263U 21088D 24109.75642536 .00026736 00000-0 13525-2 0 9999 2 49263 97.5021 176.2398 0013311 285.1006 74.8755 15.16926223140623 TeikyoSat 4 1 49396U 21102B 24109.57334542 .00004248 00000-0 31171-3 0 9990 2 49396 97.4668 156.6099 0015344 116.2628 244.0177 15.03908544133799 Z-Sat 1 49399U 21102E 24109.82225283 .00009509 00000-0 62411-3 0 9998 2 49399 97.4379 158.2691 0022191 101.6834 258.6886 15.07648838134040 KOSEN 1 1 49402U 21102H 24109.64671815 .00010357 00000-0 63049-3 0 9990 2 49402 97.4311 159.3366 0020970 88.3618 272.0014 15.10405656134154 HO-113 1 50466U 21131B 24109.83864022 .00001758 00000-0 57792-3 0 9992 2 50466 98.5272 195.1938 0003107 313.1005 46.9922 14.39495017121465 Tevel-3 1 50988U 22002E 24109.83000350 .00124798 00000-0 21180-2 0 9996 2 50988 97.3847 183.4379 0005387 208.3975 151.6984 15.51024386125807 Tevel-8 1 50989U 22002F 24109.80153647 .00125413 00000-0 21389-2 0 9998 2 50989 97.3870 183.4965 0005367 208.4538 151.6421 15.50883641125799 Tevel-5 1 50998U 22002Q 24109.80787638 .00146117 00000-0 22117-2 0 9995 2 50998 97.3838 184.4609 0005896 202.6010 157.4985 15.54139550125872 Tevel-6 1 50999U 22002R 24109.81104412 .00144787 00000-0 22007-2 0 9999 2 50999 97.3831 184.4405 0005847 202.0769 158.0234 15.54029831125875 Tevel-1 1 51013U 22002AF 24109.85461102 .00125785 00000-0 21450-2 0 9991 2 51013 97.3839 183.3379 0005351 205.4432 154.6557 15.50885617125804 IRIS-A 1 51044U 22002BN 24109.41659860 .00027916 00000-0 10026-2 0 9991 2 51044 97.3897 176.2434 0005766 231.9214 128.1507 15.28614574125287 Tevel-7 1 51062U 22002CG 24109.79301388 .00125966 00000-0 21397-2 0 9998 2 51062 97.3858 183.4626 0005375 205.2201 154.8789 15.50995195125793 Tevel-4 1 51063U 22002CH 24109.82303219 .00122683 00000-0 21061-2 0 9999 2 51063 97.3860 183.4136 0005429 205.6188 154.4796 15.50707838125790 Tevel-2 1 51069U 22002CP 24109.82871386 .00123622 00000-0 20958-2 0 9998 2 51069 97.3845 183.4043 0005364 207.4360 152.6609 15.51059027125802 SO-115 1 51080U 22002DA 24109.49749824 .00260430 00000-0 22714-2 0 9996 2 51080 97.4113 191.2983 0007638 231.6103 128.4473 15.68151303126094 SO-114 1 51081U 22002DB 24109.18030584 .00312329 00000-0 24991-2 0 9993 2 51081 97.4107 191.1861 0007522 233.5257 126.5312 15.70107805126064 OreSat0 1 52017U 22026K 24109.59116222 .00071807 00000-0 15280-2 0 9992 2 52017 97.5014 121.5510 0016579 80.3192 279.9928 15.44565601116482 Planetum 1 1 52738U 22057G 24109.30548131 .00054089 00000-0 15561-2 0 9998 2 52738 97.5584 233.5743 0004464 359.2449 0.8786 15.35592183105362 Foresail-1 1 52766U 22057AL 24109.30720459 .00030892 00000-0 10956-2 0 9993 2 52766 97.5734 233.5656 0009181 344.6472 15.4487 15.28983690105299 SNUGLITE 2 1 52899U 22065F 24109.87007797 .00003978 00000-0 82871-3 0 9995 2 52899 98.1099 252.2050 0007155 347.0888 13.0128 14.60510004 95609 IO-117 1 53106U 22080B 24108.26757684 -.00000003 00000-0 00000-0 0 9991 2 53106 70.1428 213.6795 0007982 119.5170 240.6286 6.42557181 41352 SelfieSat 1 53951U 22057BC 24109.30533637 .00093362 00000-0 20026-2 0 9990 2 53951 97.5611 236.3150 0004957 331.6664 28.4313 15.44372374105511 FO-118 1 54684U 22167C 24109.88097010 .00040703 00000-0 15702-2 0 9995 2 54684 97.5973 253.5023 0009960 353.5041 6.6067 15.26137704 75243 SSS-2B 1 56184U 23054G 24109.84352675 .00047530 00000-0 13470-2 0 9990 2 56184 97.3767 7.5132 0008946 44.2574 315.9384 15.36066992 57019 CIRBE 1 56188U 23054L 24109.25293163 .00079191 00000-0 17490-2 0 9999 2 56188 97.3679 8.0254 0006877 42.8675 317.3108 15.43552677 57011 INSPIRE-Sat 7 1 56211U 23054AK 24109.24279507 .00081941 00000-0 17220-2 0 9998 2 56211 97.3729 9.0933 0008706 18.8707 341.2862 15.44998975 57076 RoseyCubesat 1 1 56212U 23054AL 24109.82809515 .00096977 00000-0 18674-2 0 9990 2 56212 97.3730 10.1645 0007970 16.9476 343.2039 15.47499621 57194 SO-120 1 56992U 23084BU 24109.58951785 .00040333 00000-0 16647-2 0 9991 2 56992 97.5241 228.5127 0013873 230.5838 129.4171 15.23831372 47099 MRC-100 1 56993U 23084BV 24109.30054975 .00047983 00000-0 19008-2 0 9999 2 56993 97.5244 228.4593 0013799 231.6864 128.3133 15.25167586 47072 UmKA 1 (RS40S) 1 57172U 23091G 24109.84377497 .00010334 00000-0 69945-3 0 9999 2 57172 97.6177 162.5096 0016014 327.6224 32.4019 15.06595969 44550 CubeBel-2 (EU11S) 1 57175U 23091K 24109.81474308 .00013739 00000-0 91953-3 0 9994 2 57175 97.6190 162.3828 0014510 341.4813 18.5885 15.06958250 44547 VERONIKA 1 58261U 23174F 24109.80960635 .00030366 00000-0 14742-2 0 9990 2 58261 97.4638 185.2500 0013942 94.3961 265.8866 15.18328763 24699 KAFASAT 1 58317U 23174BP 24109.80680022 .00035764 00000-0 16129-2 0 9999 2 58317 97.4585 185.5983 0012298 74.8016 285.4578 15.20860984 24728 ENSO 1 58470U 23185J 24109.83819936 .00027364 00000-0 12382-2 0 9996 2 58470 97.4316 177.2702 0014743 126.5551 233.7044 15.20774990 21118 EIRSAT-1 1 58472U 23185L 24109.82867903 .00027922 00000-0 12521-2 0 9999 2 58472 97.4308 177.2688 0014426 127.9375 232.3167 15.21084358 21115 SO-121 1 58567U 23174CY 24109.14567614 .00062273 00000-0 26274-2 0 9991 2 58567 97.4587 184.9706 0013622 87.4246 272.8549 15.22970054 24629 SONATE-2 1 59112U 24043Q 24109.30885093 .00019159 00000-0 97219-3 0 9999 2 59112 97.4688 233.9018 0016498 141.7458 218.4949 15.16844806 6721 /EX
